Bluefield, WV

9:26 PM EDT on October 16, 2017 (GMT -0400)
Mercer County

Weather History for KBLF - October, 2013

Change the Weather History Date:

Sunday, October 6, 2013

  Actual Average Record
Temperature  
Mean Temperature 74 °F 59 °F  
Max Temperature 81 °F 68 °F 85 °F (2007)
Min Temperature 66 °F 50 °F 30 °F (1980)
Degree Days  
Heating Degree Days 0 7  
Month to date heating degree days 0 38  
Since 1 July heating degree days 53 117  
Cooling Degree Days 9 1  
Month to date cooling degree days 32 6  
Year to date cooling degree days 938 838  
Growing Degree Days 24 (Base 50)    
Moisture  
Dew Point 57 °F    
Average Humidity 56    
Maximum Humidity 73    
Minimum Humidity 39    
Precipitation  
Precipitation 0.00 in 0.08 in 0.84 in (2014)
Month to date precipitation 0.00 0.51  
Year to date precipitation 31.71 32.04  
Snow  
Snow 0.00 in - - ()
Month to date snowfall 0.0  
Since 1 July snowfall 0.0  
Since 1 September snowfall 0.0  
Snow Depth 0.00 in    
Sea Level Pressure  
Sea Level Pressure 29.93 in    
Wind  
Wind Speed 8 mph (South)    
Max Wind Speed 18 mph    
Max Gust Speed 28 mph    
Visibility 10 miles    
Events      
T = Trace of Precipitation, MM = Missing Value Source: NWS Daily Summary

Daily Weather History Graph

Daily Weather History Graph

Search for Another Location

Airport or City:

Trip Planner

Search our weather history database for the weather conditions in past years. The results will help you decide how hot, cold, wet, or windy it might be!

Date:

Astronomy

Oct. 06, 2013 Rise Set
Actual Time 7:24 AM EDT 7:00 PM EDT
Civil Twilight 6:58 AM EDT 7:26 PM EDT
Nautical Twilight 6:28 AM EDT 7:56 PM EDT
Astronomical Twilight 5:58 AM EDT 8:26 PM EDT
Moon 9:04 AM EDT (10/6) 8:01 PM EDT (10/6)
Length of Visible Light 12h 27m
Length of Day
11h 35m
Waxing Crescent, 3% of the Moon is Illuminated
Oct 6
Waxing Crescent
Oct 11
First Quarter
Oct 18
Full
Oct 26
Last Quarter
Nov 3
New

Hourly Weather History & Observations

Time (EDT) Temp. Heat Index Dew Point Humidity Pressure Visibility Wind Dir Wind Speed Gust Speed Precip Events Conditions
12:52 AM 71.1 °F - 59.0 °F 66% 30.00 in 10.0 mi South 8.1 mph - N/A   Clear
1:52 AM 70.0 °F - 59.0 °F 68% 29.99 in 10.0 mi South 11.5 mph 16.1 mph N/A   Clear
2:52 AM 70.0 °F - 59.0 °F 68% 29.98 in 10.0 mi South 9.2 mph 16.1 mph N/A   Clear
3:52 AM 69.1 °F - 57.9 °F 68% 29.97 in 10.0 mi South 4.6 mph - N/A   Clear
4:52 AM 69.1 °F - 57.0 °F 65% 29.96 in 10.0 mi SW 4.6 mph - N/A   Clear
5:52 AM 69.1 °F - 57.0 °F 65% 29.96 in 10.0 mi South 8.1 mph - N/A   Clear
6:52 AM 69.1 °F - 57.0 °F 65% 29.99 in 10.0 mi Variable 5.8 mph - N/A   Clear
7:52 AM 66.0 °F - 57.9 °F 75% 30.00 in 10.0 mi SE 4.6 mph - N/A   Clear
8:52 AM 70.0 °F - 57.9 °F 65% 29.99 in 10.0 mi SE 4.6 mph - N/A   Clear
9:52 AM 72.0 °F - 57.9 °F 61% 29.98 in 10.0 mi Variable 4.6 mph - N/A   Clear
10:52 AM 75.9 °F - 57.9 °F 54% 29.97 in 10.0 mi Variable 4.6 mph 16.1 mph N/A   Clear
11:52 AM 75.9 °F - 57.0 °F 52% 29.96 in 10.0 mi South 12.7 mph 19.6 mph N/A   Clear
12:52 PM 75.9 °F - 57.0 °F 52% 29.94 in 10.0 mi South 9.2 mph 17.3 mph N/A   Partly Cloudy
1:52 PM 80.1 °F 80.1 °F 55.0 °F 42% 29.92 in 10.0 mi SSE 9.2 mph - N/A   Partly Cloudy
2:52 PM 81.0 °F 80.7 °F 55.0 °F 41% 29.89 in 10.0 mi South 9.2 mph - N/A   Scattered Clouds
3:52 PM 80.1 °F 80.0 °F 54.0 °F 40% 29.87 in 10.0 mi South 9.2 mph - N/A   Clear
4:52 PM 79.0 °F - 54.0 °F 42% 29.86 in 10.0 mi Variable 6.9 mph 19.6 mph N/A   Clear
5:52 PM 75.9 °F - 55.9 °F 50% 29.86 in 10.0 mi SSE 10.4 mph 21.9 mph N/A   Partly Cloudy
6:52 PM 73.0 °F - 55.9 °F 55% 29.86 in 10.0 mi SE 11.5 mph 21.9 mph N/A   Clear
7:52 PM 72.0 °F - 57.0 °F 59% 29.87 in 10.0 mi Variable 5.8 mph - N/A   Partly Cloudy
8:52 PM 70.0 °F - 57.9 °F 65% 29.86 in 10.0 mi SSE 10.4 mph 21.9 mph N/A   Clear
9:52 PM 70.0 °F - 57.0 °F 63% 29.86 in 10.0 mi Variable 6.9 mph 21.9 mph N/A   Partly Cloudy
10:52 PM 70.0 °F - 55.9 °F 61% 29.85 in 10.0 mi Variable 6.9 mph 23.0 mph N/A   Scattered Clouds
11:52 PM 71.1 °F - 55.9 °F 59% 29.83 in 10.0 mi SSW 9.2 mph - N/A   Overcast